Tracking 23885 objects as of 27-Nov-2021
HD Live streaming from Space Station
objects crossing your sky now

METEOR 2-11 DEB

Track METEOR 2-11 DEB now!
10-day predictions


NORAD ID: 40317
Int'l Code: 1984-072C
Perigee: 924.6 km
Apogee: 947.7 km
Inclination: 82.5 °
Period: 103.6 minutes
Semi major axis: 7307 km
RCS: Unknown
Launch date: July 5, 1984
Source: Commonwealth of Independent States (former USSR) (CIS)
Launch site: PLESETSK MISSILE AND SPACE COMPLEX (PKMTR)

Note: This is SATELLITE DEBRIS
aabbcc
Your satellite tracking list
Your tracking list is empty




NASA's NSSDC Master Catalog

Two Line Element Set (TLE):
1 40317U 84072C   21331.16398362  .00000831  00000-0  66273-3 0  9993
2 40317  82.5245 273.7952 0015859 106.5086 253.7821 13.89888423354275
Source of the keplerian elements: AFSPC